When you browse on this site, cookies collect data to enhance your experience and personalize the content and advertising you see.
Visit our Privacy Policy to learn more. By continuing to use the site, you agree to this use of cookies and data.
  • Em Portugal
  • Lista de países
  • Para 7 dias
  • Temperatura da água
  • Mapa do tempo
  • Widgets de tempo
  • user-avatar
    Iniciar Sessão

    Previsão horária em Omagh

    Hoje, 22 Setembro, Domingo

    Tempo Temperatura Precipitação Vento Pressão Humidade
    00:00 +15°C° 0 mm 4 m/s 743 mmHg 97%
    01:00 +17°C° 0.2 mm 4 m/s 743 mmHg 97%
    02:00 +16°C° 0.2 mm 5 m/s 743 mmHg 96%
    03:00 +16°C° 0.2 mm 5 m/s 742 mmHg 96%
    04:00 +17°C° 0.3 mm 4 m/s 742 mmHg 97%
    05:00 +15°C° 0.3 mm 4 m/s 742 mmHg 97%
    06:00 +16°C° 0.3 mm 3 m/s 742 mmHg 97%
    07:00 +16°C° 2.1 mm 3 m/s 742 mmHg 98%
    08:00 +16°C° 2.1 mm 2 m/s 742 mmHg 98%
    09:00 +16°C° 2.1 mm 1 m/s 742 mmHg 98%
    10:00 +16°C° 0.9 mm 1 m/s 742 mmHg 98%
    11:00 +16°C° 0.9 mm 1 m/s 742 mmHg 98%
    12:00 +16°C° 0.9 mm 1 m/s 742 mmHg 97%
    13:00 +16°C° 0.4 mm 1 m/s 743 mmHg 95%
    14:00 +18°C° 0.4 mm 1 m/s 743 mmHg 92%
    15:00 +17°C° 0.4 mm 2 m/s 743 mmHg 90%
    16:00 +16°C° 0.2 mm 2 m/s 744 mmHg 91%
    17:00 +15°C° 0.2 mm 2 m/s 744 mmHg 92%
    18:00 +14°C° 0.2 mm 2 m/s 744 mmHg 94%
    19:00 +13°C° 0 mm 2 m/s 745 mmHg 94%
    20:00 +13°C° 0 mm 1 m/s 745 mmHg 95%
    21:00 +12°C° 0 mm 1 m/s 746 mmHg 95%
    22:00 +12°C° 0 mm 1 m/s 746 mmHg 95%
    23:00 +11°C° 0 mm 1 m/s 746 mmHg 95%

    Amanhã, 23 Setembro, Segunda-feira

    Tempo Temperatura Precipitação Vento Pressão Humidade
    00:00 +11°C° 0 mm 1 m/s 746 mmHg 96%
    01:00 +10°C° 0 mm 1 m/s 746 mmHg 96%
    02:00 +10°C° 0 mm 1 m/s 746 mmHg 96%
    03:00 +9°C° 0 mm 1 m/s 746 mmHg 96%
    04:00 +9°C° 0 mm 1 m/s 746 mmHg 96%
    05:00 +9°C° 0 mm 1 m/s 746 mmHg 96%
    06:00 +9°C° 0 mm 1 m/s 746 mmHg 96%
    07:00 +10°C° 0 mm 1 m/s 746 mmHg 94%
    08:00 +10°C° 0 mm 2 m/s 746 mmHg 92%
    09:00 +12°C° 0 mm 2 m/s 746 mmHg 91%
    10:00 +12°C° 0 mm 3 m/s 745 mmHg 87%
    11:00 +13°C° 0 mm 4 m/s 745 mmHg 83%
    12:00 +14°C° 0 mm 5 m/s 745 mmHg 78%
    13:00 +14°C° 0.6 mm 5 m/s 744 mmHg 84%
    14:00 +13°C° 0.6 mm 5 m/s 743 mmHg 89%
    15:00 +12°C° 0.6 mm 5 m/s 743 mmHg 95%
    16:00 +13°C° 0.4 mm 5 m/s 742 mmHg 95%
    17:00 +13°C° 0.4 mm 5 m/s 742 mmHg 96%
    18:00 +13°C° 0.4 mm 6 m/s 741 mmHg 96%
    19:00 +13°C° 0.1 mm 5 m/s 741 mmHg 96%
    20:00 +14°C° 0.1 mm 4 m/s 741 mmHg 97%
    21:00 +14°C° 0.1 mm 3 m/s 741 mmHg 97%
    22:00 +14°C° 0.6 mm 3 m/s 741 mmHg 98%
    23:00 +15°C° 0.6 mm 2 m/s 740 mmHg 98%

    Depois de amanhã, 24 Setembro, Terça-feira

    Tempo Temperatura Precipitação Vento Pressão Humidade
    00:00 +15°C° 0.6 mm 2 m/s 740 mmHg 98%
    01:00 +15°C° 0 mm 2 m/s 740 mmHg 98%
    02:00 +15°C° 0 mm 2 m/s 740 mmHg 98%
    03:00 +14°C° 0 mm 1 m/s 739 mmHg 98%
    04:00 +14°C° 0 mm 1 m/s 739 mmHg 98%
    05:00 +14°C° 0 mm 1 m/s 739 mmHg 98%
    06:00 +14°C° 0 mm 1 m/s 739 mmHg 98%
    07:00 +15°C° 0 mm 2 m/s 739 mmHg 97%
    08:00 +15°C° 0 mm 2 m/s 739 mmHg 96%
    09:00 +15°C° 0 mm 2 m/s 739 mmHg 95%
    10:00 +16°C° 0 mm 2 m/s 738 mmHg 89%
    11:00 +17°C° 0 mm 3 m/s 738 mmHg 83%
    12:00 +18°C° 0 mm 3 m/s 738 mmHg 77%
    13:00 +18°C° 0.1 mm 3 m/s 738 mmHg 79%
    14:00 +18°C° 0.1 mm 3 m/s 737 mmHg 80%
    15:00 +18°C° 0.1 mm 3 m/s 737 mmHg 81%
    16:00 +17°C° 0.1 mm 2 m/s 737 mmHg 86%
    17:00 +16°C° 0.1 mm 2 m/s 737 mmHg 90%
    18:00 +15°C° 0.1 mm 1 m/s 737 mmHg 95%
    19:00 +14°C° 0 mm 1 m/s 737 mmHg 96%
    20:00 +12°C° 0 mm 0 m/s 738 mmHg 96%
    21:00 +12°C° 0 mm 0 m/s 738 mmHg 96%
    22:00 +11°C° 0 mm 0 m/s 739 mmHg 96%
    23:00 +12°C° 0 mm 1 m/s 739 mmHg 97%

    25 Setembro, Quarta-feira

    Tempo Temperatura Precipitação Vento Pressão Humidade
    00:00 +12°C° 0 mm 1 m/s 739 mmHg 97%
    01:00 +12°C° 0 mm 1 m/s 739 mmHg 97%
    02:00 +12°C° 0 mm 1 m/s 740 mmHg 97%
    03:00 +12°C° 0 mm 1 m/s 740 mmHg 98%
    04:00 +12°C° 0 mm 1 m/s 740 mmHg 98%
    05:00 +12°C° 0 mm 1 m/s 740 mmHg 98%
    06:00 +12°C° 0 mm 1 m/s 740 mmHg 98%
    07:00 +13°C° 0 mm 1 m/s 740 mmHg 97%
    08:00 +14°C° 0 mm 1 m/s 740 mmHg 95%
    09:00 +15°C° 0 mm 1 m/s 740 mmHg 94%
    10:00 +16°C° 0 mm 2 m/s 740 mmHg 90%
    11:00 +16°C° 0 mm 2 m/s 740 mmHg 86%
    12:00 +17°C° 0 mm 3 m/s 740 mmHg 83%
    13:00 +16°C° 0 mm 3 m/s 740 mmHg 86%
    14:00 +16°C° 0 mm 3 m/s 739 mmHg 89%
    15:00 +14°C° 0 mm 4 m/s 739 mmHg 92%
    16:00 +14°C° 0.3 mm 4 m/s 738 mmHg 94%
    17:00 +14°C° 0.3 mm 4 m/s 737 mmHg 95%
    18:00 +14°C° 0.3 mm 4 m/s 737 mmHg 97%
    19:00 +14°C° 1.4 mm 4 m/s 736 mmHg 96%
    20:00 +14°C° 1.4 mm 4 m/s 736 mmHg 95%
    21:00 +14°C° 1.4 mm 4 m/s 736 mmHg 94%
    22:00 +13°C° 0.9 mm 3 m/s 736 mmHg 95%
    23:00 +12°C° 0.9 mm 3 m/s 736 mmHg 95%

    26 Setembro, Quinta-feira

    Tempo Temperatura Precipitação Vento Pressão Humidade
    00:00 +11°C° 0.9 mm 3 m/s 736 mmHg 96%
    01:00 +11°C° 0 mm 3 m/s 736 mmHg 96%
    02:00 +10°C° 0 mm 3 m/s 736 mmHg 96%
    03:00 +9°C° 0 mm 3 m/s 736 mmHg 96%
    04:00 +10°C° 0 mm 3 m/s 736 mmHg 96%
    05:00 +10°C° 0 mm 4 m/s 736 mmHg 96%
    06:00 +11°C° 0 mm 4 m/s 736 mmHg 96%
    07:00 +11°C° 0 mm 4 m/s 736 mmHg 94%
    08:00 +12°C° 0 mm 4 m/s 737 mmHg 93%
    09:00 +12°C° 0 mm 4 m/s 737 mmHg 91%
    10:00 +13°C° 0.2 mm 4 m/s 737 mmHg 90%
    11:00 +13°C° 0.2 mm 5 m/s 737 mmHg 88%
    12:00 +13°C° 0.2 mm 5 m/s 737 mmHg 86%
    13:00 +14°C° 0.3 mm 5 m/s 737 mmHg 85%
    14:00 +14°C° 0.3 mm 4 m/s 737 mmHg 85%
    15:00 +14°C° 0.3 mm 4 m/s 737 mmHg 84%
    16:00 +13°C° 0.1 mm 4 m/s 737 mmHg 87%
    17:00 +12°C° 0.1 mm 3 m/s 737 mmHg 89%
    18:00 +11°C° 0.1 mm 3 m/s 737 mmHg 92%
    19:00 +11°C° 0 mm 3 m/s 737 mmHg 93%
    20:00 +11°C° 0 mm 3 m/s 738 mmHg 95%
    21:00 +10°C° 0 mm 3 m/s 738 mmHg 96%
    22:00 +10°C° 0 mm 3 m/s 738 mmHg 96%
    23:00 +10°C° 0 mm 3 m/s 738 mmHg 95%

    27 Setembro, Sexta-feira

    Tempo Temperatura Precipitação Vento Pressão Humidade
    00:00 +10°C° 0 mm 3 m/s 738 mmHg 95%
    01:00 +10°C° 0.1 mm 3 m/s 737 mmHg 94%
    02:00 +10°C° 0.1 mm 4 m/s 737 mmHg 94%
    03:00 +11°C° 0.1 mm 4 m/s 737 mmHg 93%
    04:00 +11°C° 0.7 mm 4 m/s 737 mmHg 94%
    05:00 +10°C° 0.7 mm 4 m/s 737 mmHg 95%
    06:00 +10°C° 0.7 mm 4 m/s 737 mmHg 97%
    07:00 +11°C° 0.3 mm 4 m/s 737 mmHg 95%
    08:00 +11°C° 0.3 mm 4 m/s 737 mmHg 93%
    09:00 +12°C° 0.3 mm 4 m/s 737 mmHg 91%
    10:00 +12°C° 0.2 mm 4 m/s 737 mmHg 90%
    11:00 +13°C° 0.2 mm 4 m/s 737 mmHg 88%
    12:00 +13°C° 0.2 mm 4 m/s 737 mmHg 86%
    13:00 +13°C° 1.7 mm 4 m/s 736 mmHg 89%
    14:00 +12°C° 1.7 mm 4 m/s 736 mmHg 92%
    15:00 +12°C° 1.7 mm 4 m/s 736 mmHg 96%
    16:00 +12°C° 0.6 mm 3 m/s 735 mmHg 95%
    17:00 +11°C° 0.6 mm 3 m/s 735 mmHg 94%
    18:00 +11°C° 0.6 mm 3 m/s 735 mmHg 94%
    19:00 +10°C° 0.1 mm 3 m/s 736 mmHg 95%
    20:00 +10°C° 0.1 mm 3 m/s 736 mmHg 96%
    21:00 +9°C° 0.1 mm 3 m/s 736 mmHg 96%
    22:00 +10°C° 0.6 mm 3 m/s 736 mmHg 96%
    23:00 +10°C° 0.6 mm 4 m/s 736 mmHg 96%
    Mostrar mais